Weather History for Norman, OK

Change the Weather History Date:

Monday, April 15, 2013

  Actual Average Record
Temperature  
Mean Temperature 68 °F -  
Max Temperature 80 °F 77 °F 92 °F (1956)
Min Temperature 55 °F 48 °F 30 °F (2014)
Cooling Degree Days 2    
Growing Degree Days 18 (Base 50)    
Moisture  
Dew Point 50 °F    
Average Humidity 58    
Maximum Humidity 88    
Minimum Humidity 47    
Precipitation  
Precipitation 0.00 in - - ()
Sea Level Pressure  
Sea Level Pressure 29.70 in    
Wind  
Wind Speed 10 mph (NNE)    
Max Wind Speed 22 mph    
Max Gust Speed 28 mph    
Visibility 10 miles    
Events Thunderstorm    
Averages and records for this station are not official NWS values.
T = Trace of Precipitation, MM = Missing Value Source: NWS Daily Summary

Daily Weather History Graph

Daily Weather History Graph

Search for Another Location

Airport:

Trip Planner

Search our weather history database for the weather conditions in past years. The results will help you decide how hot, cold, wet, or windy it might be!

Date:

Astronomy

Apr. 15, 2013 Rise Set
Actual Time 6:57 AM CDT 8:02 PM CDT
Civil Twilight 6:31 AM CDT 8:29 PM CDT
Nautical Twilight 6:00 AM CDT 9:00 PM CDT
Astronomical Twilight 5:27 AM CDT 9:32 PM CDT
Moon 10:30 AM CDT (4/15) 12:09 AM CDT (4/15)
Length of Visible Light 13h 57m
Length of Day
13h 05m
Waxing Crescent, 25% of the Moon is Illuminated
Apr 15
Waxing Crescent
Apr 18
First Quarter
Apr 25
Full
May 2
Last Quarter
May 9
New

Hourly Weather History & Observations

Time (CDT) Temp. Heat Index Dew Point Humidity Pressure Visibility Wind Dir Wind Speed Gust Speed Precip Events Conditions
12:15 AM 66.2 °F - 62.6 °F 88% 29.63 in 10.0 mi NNE 6.9 mph - N/A   Overcast
12:35 AM 66.2 °F - 62.6 °F 88% 29.64 in 10.0 mi Calm Calm - N/A   Overcast
12:55 AM 68.0 °F - 62.6 °F 83% 29.64 in 10.0 mi East 8.1 mph - N/A   Overcast
1:15 AM 68.0 °F - 62.6 °F 83% 29.64 in 10.0 mi NE 9.2 mph - N/A   Overcast
1:35 AM 66.2 °F - 60.8 °F 83% 29.63 in 10.0 mi NE 11.5 mph - N/A   Overcast
1:55 AM 62.6 °F - 55.4 °F 77% 29.64 in 10.0 mi NNE 11.5 mph - N/A   Overcast
2:15 AM 62.6 °F - 51.8 °F 68% 29.63 in 10.0 mi NE 16.1 mph - N/A   Overcast
2:35 AM 62.6 °F - 50.0 °F 63% 29.63 in 10.0 mi NE 16.1 mph - N/A   Overcast
2:55 AM 62.6 °F - 50.0 °F 63% 29.64 in 10.0 mi NE 16.1 mph 21.9 mph N/A   Overcast
3:15 AM 60.8 °F - 46.4 °F 59% 29.63 in 10.0 mi NE 15.0 mph 23.0 mph N/A   Overcast
3:35 AM 60.8 °F - 46.4 °F 59% 29.64 in 10.0 mi NE 12.7 mph 17.3 mph N/A   Overcast
3:55 AM 60.8 °F - 44.6 °F 55% 29.65 in 10.0 mi NE 17.3 mph 23.0 mph N/A   Overcast
4:15 AM 60.8 °F - 42.8 °F 52% 29.65 in 10.0 mi NE 20.7 mph 24.2 mph N/A   Overcast
4:35 AM 60.8 °F - 42.8 °F 52% 29.65 in 10.0 mi NE 12.7 mph 19.6 mph N/A   Mostly Cloudy
4:55 AM 60.8 °F - 42.8 °F 52% 29.66 in 10.0 mi NE 13.8 mph 21.9 mph N/A   Overcast
5:15 AM 59.0 °F - 42.8 °F 55% 29.67 in 10.0 mi NE 13.8 mph 20.7 mph N/A   Overcast
5:35 AM 59.0 °F - 42.8 °F 55% 29.67 in 10.0 mi NE 21.9 mph 27.6 mph N/A   Overcast
5:55 AM 57.2 °F - 41.0 °F 55% 29.67 in 10.0 mi NE 19.6 mph 23.0 mph N/A   Mostly Cloudy
6:15 AM 57.2 °F - 41.0 °F 55% 29.68 in 10.0 mi NE 15.0 mph - N/A   Mostly Cloudy
6:35 AM 55.4 °F - 39.2 °F 54% 29.68 in 10.0 mi NE 13.8 mph - N/A   Mostly Cloudy
6:55 AM 57.2 °F - 41.0 °F 55% 29.69 in 10.0 mi NE 13.8 mph - N/A   Mostly Cloudy
7:15 AM 57.2 °F - 39.2 °F 51% 29.69 in 10.0 mi NE 12.7 mph - N/A   Overcast
7:35 AM 57.2 °F - 41.0 °F 55% 29.69 in 10.0 mi ENE 13.8 mph 23.0 mph N/A   Overcast
7:55 AM 57.2 °F - 41.0 °F 55% 29.70 in 10.0 mi ENE 16.1 mph 20.7 mph N/A   Overcast
8:15 AM 59.0 °F - 41.0 °F 51% 29.70 in 10.0 mi ENE 15.0 mph 20.7 mph N/A   Overcast
8:35 AM 59.0 °F - 41.0 °F 51% 29.71 in 10.0 mi NE 12.7 mph - N/A   Overcast
8:55 AM 57.2 °F - 41.0 °F 55% 29.71 in 10.0 mi NE 11.5 mph - N/A   Mostly Cloudy
9:15 AM 59.0 °F - 42.8 °F 55% 29.72 in 10.0 mi NE 11.5 mph - N/A   Mostly Cloudy
9:35 AM 59.0 °F - 42.8 °F 55% 29.72 in 10.0 mi NE 11.5 mph - N/A   Overcast
9:55 AM 60.8 °F - 44.6 °F 55% 29.72 in 10.0 mi NE 11.5 mph - N/A   Mostly Cloudy
10:15 AM 59.0 °F - 42.8 °F 55% 29.72 in 10.0 mi NE 10.4 mph - N/A   Overcast
10:35 AM 60.8 °F - 44.6 °F 55% 29.73 in 10.0 mi NE 10.4 mph - N/A   Overcast
10:55 AM 60.8 °F - 44.6 °F 55% 29.74 in 10.0 mi NE 9.2 mph - N/A   Overcast
11:15 AM 62.6 °F - 46.4 °F 55% 29.74 in 10.0 mi NNE 6.9 mph - N/A   Overcast
11:35 AM 62.6 °F - 46.4 °F 55% 29.74 in 10.0 mi NE 5.8 mph - N/A   Mostly Cloudy
11:55 AM 64.4 °F - 48.2 °F 56% 29.74 in 10.0 mi NNE 5.8 mph - N/A   Scattered Clouds
12:15 PM 66.2 °F - 50.0 °F 56% 29.74 in 10.0 mi NE 4.6 mph - N/A   Clear
12:35 PM 68.0 °F - 51.8 °F 56% 29.74 in 10.0 mi North 3.5 mph - N/A   Clear
12:55 PM 68.0 °F - 51.8 °F 56% 29.73 in 10.0 mi North 3.5 mph - N/A   Clear
1:15 PM 68.0 °F - 51.8 °F 56% 29.73 in 10.0 mi NNE 3.5 mph - N/A   Clear
1:35 PM 69.8 °F - 53.6 °F 56% 29.72 in 10.0 mi North 4.6 mph - N/A   Clear
1:55 PM 71.6 °F - 55.4 °F 57% 29.72 in 10.0 mi NW 4.6 mph - N/A   Clear
2:15 PM 71.6 °F - 55.4 °F 57% 29.72 in 10.0 mi Calm Calm - N/A   Clear
2:35 PM 71.6 °F - 55.4 °F 57% 29.71 in 10.0 mi Calm Calm - N/A   Clear
2:55 PM 73.4 °F - 55.4 °F 53% 29.71 in 10.0 mi Calm Calm - N/A   Clear
3:15 PM 75.2 °F - 55.4 °F 50% 29.70 in 10.0 mi Calm Calm - N/A   Clear
3:35 PM 77.0 °F - 55.4 °F 47% 29.70 in 10.0 mi WNW 3.5 mph - N/A   Clear
3:55 PM 77.0 °F - 57.2 °F 50% 29.70 in 10.0 mi WNW 3.5 mph - N/A   Clear
4:15 PM 77.0 °F - 55.4 °F 47% 29.69 in 10.0 mi Calm Calm - N/A   Clear
4:35 PM 78.8 °F - 57.2 °F 47% 29.69 in 10.0 mi Calm Calm - N/A   Clear
4:55 PM 78.8 °F - 59.0 °F 51% 29.68 in 10.0 mi Calm Calm - N/A   Clear
5:15 PM 78.8 °F - 57.2 °F 47% 29.68 in 10.0 mi Calm Calm - N/A   Clear
5:35 PM 80.6 °F 81.1 °F 59.0 °F 48% 29.67 in 10.0 mi Calm Calm - N/A   Clear
5:55 PM 78.8 °F - 59.0 °F 51% 29.67 in 10.0 mi Calm Calm - N/A   Clear
6:15 PM 78.8 °F - 59.0 °F 51% 29.68 in 10.0 mi NW 5.8 mph - N/A   Clear
6:35 PM 77.0 °F - 59.0 °F 54% 29.68 in 10.0 mi NW 8.1 mph - N/A   Clear
6:55 PM 75.2 °F - 59.0 °F 57% 29.69 in 10.0 mi NNW 5.8 mph - N/A   Mostly Cloudy
7:15 PM 71.6 °F - 57.2 °F 60% 29.70 in 10.0 mi North 5.8 mph - N/A   Scattered Clouds
7:35 PM 71.6 °F - 55.4 °F 57% 29.70 in 10.0 mi North 8.1 mph - N/A   Clear
7:55 PM 69.8 °F - 53.6 °F 56% 29.70 in 10.0 mi North 8.1 mph - N/A Thunderstorm Thunderstorm
8:15 PM 68.0 °F - 53.6 °F 60% 29.71 in 10.0 mi North 8.1 mph - N/A Thunderstorm Scattered Clouds
8:35 PM 68.0 °F - 53.6 °F 60% 29.73 in 10.0 mi North 6.9 mph - N/A   Mostly Cloudy
8:55 PM 68.0 °F - 53.6 °F 60% 29.74 in 10.0 mi North 6.9 mph - N/A   Overcast
9:15 PM 69.8 °F - 53.6 °F 56% 29.75 in 10.0 mi North 9.2 mph - N/A   Overcast
9:35 PM 68.0 °F - 53.6 °F 60% 29.77 in 10.0 mi North 9.2 mph - N/A   Overcast
9:55 PM 66.2 °F - 51.8 °F 60% 29.79 in 10.0 mi North 12.7 mph 20.7 mph N/A   Overcast
10:15 PM 62.6 °F - 51.8 °F 68% 29.80 in 10.0 mi North 15.0 mph 20.7 mph N/A   Overcast
10:35 PM 60.8 °F - 50.0 °F 68% 29.81 in 10.0 mi North 15.0 mph 23.0 mph N/A   Overcast
10:55 PM 60.8 °F - 50.0 °F 68% 29.82 in 10.0 mi NNE 15.0 mph 18.4 mph N/A   Overcast
11:15 PM 59.0 °F - 48.2 °F 67% 29.82 in 10.0 mi NNE 17.3 mph - N/A   Overcast
11:35 PM 59.0 °F - 48.2 °F 67% 29.82 in 10.0 mi NNE 15.0 mph 21.9 mph N/A   Overcast
11:55 PM 57.2 °F - 46.4 °F 67% 29.82 in 10.0 mi NNE 12.7 mph 20.7 mph N/A   Overcast